Snowfall_Accumulation
0.0 0.0 0.0 0.0 0.0 0.0 0.0 0.0 0.0 0.0 0.0 0.0 0.0 0.0 0.0 0.0 0.0 0.0 0.0 0.0 0.0 0.0 0.0 0.0 0.0 0.0 0.0 0.0 0.0 0.0 0.0 0.0 0.0 0.0 0.0 0.0 0.0 0.0 0.0 0.0 0.0 0.0 0.0
0.0 0.0 0.0 0.0 0.0 0.0 0.0 0.0 0.0 0.0 0.0 0.0 0.0 0.0 0.0 0.0 0.0 0.0 0.0 0.0 0.0 0.0 0.0 0.0 0.0 0.0 0.0 0.0 0.0 0.0 0.0 0.0 0.0 0.0 0.0 0.0 0.0 0.0 0.0 0.0 0.0 0.0 0.0
0.0 0.0 0.0 0.0 0.0 0.0 0.0 0.0 0.0 0.0 0.0 0.0 0.0 0.0 0.0 0.0 0.0 0.0 0.0 0.0 0.0 0.0 0.0 0.0 0.0 0.0 0.0 0.0 0.0 0.0 0.0 0.0 0.0 0.0 0.0 0.0 0.0 0.0 0.0 0.0 0.0 0.0 0.0
0.0 0.0 0.0 0.0 0.0 0.0 0.0 0.0 0.0 0.0 0.0 0.0 0.0 0.0 0.0 0.0 0.0 0.0 0.0 0.0 0.0 0.0 0.0 0.0 0.0 0.0 0.0 0.0 0.0 0.0 0.0 0.0 0.0 0.0 0.0 0.0 0.0 0.0 0.0 0.0 0.0 0.0 0.0
0.0 0.0 0.0 0.0 0.0 0.0 0.0 0.0 0.0 0.0 0.0 0.0 0.0 0.0 0.0 0.0 0.0 0.0 0.0 0.0 0.0 0.0 0.0 0.0 0.0 0.0 0.0 0.0 0.0 0.0 0.0 0.0 0.0 0.0 0.0 0.0 0.0 0.0 0.0 0.0 0.0 0.0 0.0
0.0 0.0 0.0 0.0 0.0 0.0 0.0 0.0 0.0 0.0 0.0 0.0 0.0 0.0 0.0 0.0 0.0 0.0 0.0 0.0 0.0 0.0 0.0 0.0 0.0 0.0 0.0 0.0 0.0 0.0 0.0 0.0 0.0 0.0 0.0 0.0 0.0 0.0 0.0 0.0 0.0 0.0 0.0
0.0 0.0 0.0 0.0 0.0 0.0 0.0 0.0 0.0 0.0 0.0 0.0 0.0 0.0 0.0 0.0 0.0 0.0 0.0 0.0 0.0 0.0 0.0 0.0 0.0 0.0 0.0 0.0 0.0 0.0 0.0 0.0 0.0 0.0 0.0 0.0 0.0 0.0 0.0 0.0 0.0 0.0 0.0
1.0 0.5 0.1 0.0 0.0 0.0 0.0 0.0 0.0 0.0 0.0 0.0 0.0 0.0 0.0 0.0 0.0 0.0 0.0 0.0 0.0 0.0 0.0 0.0 0.0 0.0 0.0 0.0 0.0 0.0 0.0 0.0 0.0 0.0 0.0 0.0 0.0 0.0 0.0 0.0 0.0 0.0 0.0
0.0 1.9 0.9 0.6 0.3 0.0 0.0 0.0 0.0 0.0 0.0 0.0 0.0 0.0 0.0 0.0 0.0 0.0 0.0 0.0 0.0 0.0 0.0 0.0 0.0 0.0 0.0 0.0 0.0 0.0 0.0 0.0 0.0 0.0 0.0 0.0 0.0 0.1 0.0 0.1 0.1 0.3 0.2
1.6 0.0 0.8 0.4 0.0 0.0 0.0 0.0 0.0 0.0 0.0 0.0 0.0 0.0 0.0 0.0 0.0 0.0 0.0 0.0 0.0 0.0 0.0 0.0 0.0 0.0 0.0 0.0 0.0 0.0 0.0 0.0 0.1 0.1 0.1 0.0 0.0 0.1 0.1 0.2 0.2 0.3 0.5
0.6 0.5 0.5 0.2 0.0 0.0 0.0 0.1 0.1 0.0 0.0 0.0 0.0 0.0 0.0 0.0 0.0 0.0 0.0 0.0 0.0 0.0 0.0 0.0 0.0 0.0 0.0 0.0 0.0 0.0 0.0 0.0 0.4 0.1 0.2 0.1 0.4 0.5 0.3 0.5 0.6 0.6 0.5
0.0 0.2 0.1 0.0 0.0 0.0 0.0 0.0 0.0 0.0 0.0 0.0 0.0 0.0 0.0 0.0 0.0 0.0 0.0 0.0 0.0 0.0 0.0 0.0 0.0 0.0 0.0 0.0 0.0 0.0 0.0 0.0 0.0 0.0 0.0 0.0 0.0 0.1 0.4 0.8 1.1 1.2 0.7
0.0 0.0 0.0 0.0 0.0 0.0 0.0 0.0 0.0 0.0 0.0 0.0 0.0 0.0 0.0 0.0 0.0 0.0 0.0 0.0 0.0 0.0 0.0 0.0 0.0 0.0 0.0 0.0 0.0 0.0 0.0 0.0 0.0 0.0 0.0 0.0 0.0 0.0 0.1 0.1 0.1 0.1 0.1
0.0 0.0 0.0 0.0 0.0 0.0 0.0 0.0 0.0 0.0 0.0 0.0 0.0 0.0 0.0 0.0 0.0 0.0 0.0 0.0 0.0 0.0 0.0 0.0 0.0 0.0 0.0 0.0 0.0 0.0 0.0 0.0 0.0 0.2 0.2 0.0 0.0 0.1 0.0 0.2 0.2 0.1 0.1
0.0 0.0 0.0 0.0 0.0 0.0 0.0 0.0 0.0 0.0 0.0 0.0 0.0 0.0 0.0 0.0 0.0 0.0 0.0 0.0 0.0 0.0 0.0 0.0 0.0 0.0 0.0 0.0 0.0 0.0 0.1 0.3 0.4 0.2 0.2 0.0 0.0 0.4 0.2 0.2 0.4 0.1 0.1
0.0 0.0 0.0 0.0 0.0 0.0 0.1 0.1 0.1 0.1 0.0 0.1 0.0 0.0 0.0 0.0 0.0 0.0 0.0 0.0 0.0 0.0 0.0 0.2 0.0 0.0 0.2 0.4 0.0 0.2 0.5 0.7 0.0 0.5 0.1 0.0 0.4 0.4 0.1 0.0 0.1 0.3 0.5
0.1 0.0 0.3 0.1 0.2 0.4 0.4 0.5 0.5 0.2 0.0 0.3 0.2 0.2 0.9 0.0 0.7 0.7 0.6 0.9 0.7 0.4 1.2 1.5 1.5 2.3 2.1 1.0 0.5 0.3 0.3 0.4 0.8 0.2 0.0 0.0 0.4 0.3 0.2 0.5 0.3 0.2 0.1
1.7 1.3 1.3 1.1 1.1 0.6 0.7 0.5 1.1 0.6 2.4 1.8 2.2 1.7 2.4 3.4 4.4 4.7 4.6 4.0 2.9 3.0 3.4 4.9 4.3 4.1 3.4 1.6 1.5 2.1 2.7 2.4 1.7 2.4 2.0 1.5 0.6 0.3 0.5 0.4 0.3 0.2 0.1
3.6 6.2 1.9 1.8 2.3 1.8 1.7 3.7 4.8 5.1 4.8 6.6 6.9 6.9 7.1 7.2 6.8 7.5 6.7 5.8 5.7 5.6 6.9 5.5 5.6 4.5 3.7 2.3 2.6 3.8 3.4 3.0 2.6 2.2 1.8 1.4 1.9 2.5 3.0 0.7 1.0 1.8 2.1
4.2 3.7 6.6 6.1 4.5 4.8 3.2 5.0 8.3 9.9 11.1 12.4 12.3 8.9 7.7 8.0 9.5 7.7 9.1 9.5 6.9 7.3 6.8 10.3 7.3 6.0 3.3 2.9 4.6 3.9 5.5 3.8 6.5 3.8 3.3 3.3 1.9 1.9 1.9 1.1 1.7 3.0 3.9
4.0 3.7 3.0 4.9 7.3 6.0 6.3 7.8 9.5 11.2 12.2 14.3 12.4 10.3 10.1 11.4 10.8 10.2 9.8 13.2 14.8 12.1 8.7 10.2 9.7 8.9 7.0 10.1 9.2 5.4 9.4 8.7 5.1 5.0 3.4 5.2 5.1 5.4 2.6 3.4 5.3 8.0 4.3
2.9 2.1 3.0 2.8 1.5 1.0 1.1 6.2 11.2 12.6 14.2 14.0 12.2 11.4 10.4 9.7 10.1 10.0 11.9 11.4 12.4 16.4 18.7 17.7 15.8 15.1 14.5 12.6 10.3 9.3 9.7 8.5 8.4 7.8 7.8 7.2 5.5 4.5 6.9 6.3 6.3 7.3 6.5
1.8 1.0 0.9 0.4 0.3 0.2 0.0 0.9 3.0 5.8 9.8 11.9 13.2 11.4 10.4 9.7 8.4 9.1 10.2 11.0 11.8 11.5 11.6 11.9 14.3 16.6 15.9 16.6 14.4 15.1 14.5 13.4 13.5 13.4 12.5 11.3 8.4 7.1 8.2 8.4 10.2 12.4 7.8
1.5 0.5 0.1 0.1 0.4 0.5 0.6 0.1 1.3 2.5 3.8 5.1 6.3 7.2 7.3 7.6 7.1 6.1 6.1 6.3 8.0 8.8 10.2 10.4 10.2 9.7 9.1 10.9 10.7 10.7 9.9 9.8 11.7 12.2 13.6 12.7 16.0 17.7 16.6 22.2 21.8 17.1 23.2
3.5 1.2 0.7 0.6 1.1 0.6 0.4 1.2 1.7 2.1 3.5 4.5 5.0 5.3 5.3 5.0 4.8 4.9 4.3 3.8 5.3 3.8 4.4 5.6 5.8 6.3 9.3 10.3 7.9 8.2 10.6 10.8 11.9 16.8 23.1 25.2 25.2 26.4 27.5 26.9 27.1 25.8 23.9
2.9 1.9 2.0 1.3 1.0 0.1 1.3 1.9 1.5 0.6 1.1 2.0 3.5 3.0 3.6 2.7 2.7 2.0 4.3 3.5 3.4 3.2 2.2 2.2 5.7 7.3 10.9 14.1 13.6 13.7 13.8 15.1 15.6 17.3 18.8 19.4 17.9 17.8 17.7 16.5 15.4 13.5 12.5